| time (UTC) | temp F | wind direction | speed MPH | gust MPH | rain 1hr in | rain 24hr in | rain mn in | humidity % | barometer mb |
| 20260506051416 | 77 | 161 | 2.0 | 9.0 | 0.00 | 0.00 | 0.00 | 84 | 1009.2 |
| 20260506050923 | 77 | 140 | 3.0 | 9.0 | 0.00 | 0.00 | 0.00 | 84 | 1009.4 |
| 20260506050919 | 77 | 152 | 3.0 | 6.0 | 0.00 | 0.00 | 0.00 | 84 | 1009.3 |
| 20260506044917 | 77 | 151 | 3.0 | 6.0 | 0.00 | 0.00 | 0.00 | 84 | 1009.3 |
| 20260506044418 | 77 | 142 | 4.0 | 9.0 | 0.00 | 0.00 | 0.00 | 84 | 1009.3 |
| 20260506043917 | 77 | 137 | 3.0 | 9.0 | 0.00 | 0.00 | 0.00 | 84 | 1009.3 |
| 20260506043416 | 77 | 137 | 3.0 | 7.0 | 0.00 | 0.00 | 0.00 | 84 | 1009.3 |
| 20260506042915 | 77 | 124 | 3.0 | 7.0 | 0.00 | 0.00 | 0.00 | 84 | 1009.3 |
| 20260506042416 | 77 | 138 | 3.0 | 5.0 | 0.00 | 0.00 | 0.00 | 84 | 1009.3 |
| 20260506041917 | 77 | 137 | 3.0 | 6.0 | 0.00 | 0.00 | 0.00 | 84 | 1009.1 |
| 20260506041417 | 77 | 133 | 4.0 | 9.0 | 0.00 | 0.00 | 0.00 | 84 | 1009.1 |
| 20260506040922 | 77 | 154 | 3.0 | 9.0 | 0.00 | 0.00 | 0.00 | 84 | 1009.0 |
| 20260506040916 | 77 | 140 | 4.0 | 9.0 | 0.00 | 0.00 | 0.00 | 84 | 1009.0 |
| 20260506035915 | 77 | 131 | 4.0 | 7.0 | 0.00 | 0.00 | 0.00 | 84 | 1008.9 |
| 20260506035417 | 78 | 127 | 2.0 | 6.0 | 0.00 | 0.00 | 0.00 | 84 | 1008.9 |
| 20260506034917 | 78 | 137 | 3.0 | 6.0 | 0.00 | 0.00 | 0.00 | 84 | 1008.8 |
| 20260506034415 | 78 | 83 | 3.0 | 7.0 | 0.00 | 0.00 | 0.00 | 84 | 1008.8 |
| 20260506033916 | 78 | 151 | 4.0 | 7.0 | 0.00 | 0.00 | 0.00 | 84 | 1008.8 |
| 20260506033416 | 78 | 147 | 5.0 | 7.0 | 0.00 | 0.00 | 0.00 | 84 | 1008.8 |
| 20260506032916 | 78 | 164 | 4.0 | 7.0 | 0.00 | 0.00 | 0.00 | 84 | 1008.6 |
| 20260506032415 | 78 | 140 | 3.0 | 6.0 | 0.00 | 0.00 | 0.00 | 84 | 1008.6 |
| 20260506031916 | 78 | 155 | 3.0 | 6.0 | 0.00 | 0.00 | 0.00 | 83 | 1008.6 |
| 20260506031414 | 78 | 152 | 3.0 | 6.0 | 0.00 | 0.00 | 0.00 | 83 | 1008.5 |
| 20260506030914 | 78 | 127 | 2.0 | 7.0 | 0.00 | 0.00 | 0.00 | 83 | 1008.4 |
| 20260506030415 | 79 | 148 | 2.0 | 7.0 | 0.00 | 0.00 | 0.00 | 83 | 1008.3 |
| 20260506025914 | 79 | 159 | 4.0 | 9.0 | 0.00 | 0.00 | 0.00 | 83 | 1008.2 |
| 20260506025415 | 79 | 118 | 5.0 | 9.0 | 0.00 | 0.00 | 0.00 | 83 | 1008.2 |
| 20260506024914 | 79 | 135 | 4.0 | 7.0 | 0.00 | 0.00 | 0.00 | 82 | 1008.1 |
| 20260506024415 | 79 | 123 | 4.0 | 6.0 | 0.00 | 0.00 | 0.00 | 82 | 1008.0 |
| 20260506023914 | 79 | 142 | 3.0 | 7.0 | 0.00 | 0.00 | 0.00 | 82 | 1007.9 |
| 20260506023414 | 80 | 142 | 3.0 | 9.0 | 0.00 | 0.00 | 0.00 | 81 | 1007.8 |
| 20260506022915 | 80 | 134 | 4.0 | 9.0 | 0.00 | 0.00 | 0.00 | 80 | 1007.8 |
| 20260506022415 | 80 | 127 | 3.0 | 7.0 | 0.00 | 0.00 | 0.00 | 80 | 1007.6 |
| 20260506021913 | 80 | 141 | 3.0 | 7.0 | 0.00 | 0.00 | 0.00 | 80 | 1007.5 |
| 20260506021415 | 80 | 134 | 2.0 | 5.0 | 0.00 | 0.00 | 0.00 | 79 | 1007.3 |
| 20260506020918 | 80 | 111 | 3.0 | 4.0 | 0.00 | 0.00 | 0.00 | 79 | 1007.2 |
| 20260506020912 | 80 | 148 | 2.0 | 5.0 | 0.00 | 0.00 | 0.00 | 79 | 1007.2 |
| 20260506015913 | 81 | 117 | 2.0 | 5.0 | 0.00 | 0.00 | 0.00 | 79 | 1007.2 |
| 20260506015413 | 81 | 138 | 3.0 | 5.0 | 0.00 | 0.00 | 0.00 | 78 | 1007.1 |
| 20260506014914 | 81 | 147 | 2.0 | 4.0 | 0.00 | 0.00 | 0.00 | 78 | 1007.1 |
| 20260506014413 | 81 | 130 | 2.0 | 5.0 | 0.00 | 0.00 | 0.00 | 78 | 1007.0 |
| 20260506013912 | 81 | 120 | 2.0 | 5.0 | 0.00 | 0.00 | 0.00 | 77 | 1007.1 |
| 20260506013417 | 82 | 110 | 3.0 | 5.0 | 0.00 | 0.00 | 0.00 | 77 | 1007.0 |
| 20260506013412 | 81 | 117 | 2.0 | 5.0 | 0.00 | 0.00 | 0.00 | 77 | 1007.1 |
| 20260506012415 | 82 | 118 | 2.0 | 4.0 | 0.00 | 0.00 | 0.00 | 77 | 1007.0 |
| 20260506011912 | 82 | 134 | 2.0 | 4.0 | 0.00 | 0.00 | 0.00 | 76 | 1007.0 |
| 20260506011413 | 82 | 121 | 2.0 | 4.0 | 0.00 | 0.00 | 0.00 | 76 | 1007.0 |
| 20260506010916 | 82 | 130 | 1.0 | 2.0 | 0.00 | 0.00 | 0.00 | 76 | 1007.1 |
| 20260506010911 | 82 | 135 | 2.0 | 4.0 | 0.00 | 0.00 | 0.00 | 76 | 1007.1 |
| 20260506005912 | 82 | 138 | 1.0 | 3.0 | 0.00 | 0.00 | 0.00 | 75 | 1007.1 |
| 20260506005418 | 83 | 147 | 2.0 | 4.0 | 0.00 | 0.00 | 0.00 | 75 | 1007.1 |
| 20260506005412 | 83 | 138 | 1.0 | 4.0 | 0.00 | 0.00 | 0.00 | 75 | 1007.0 |
| 20260506004411 | 83 | 125 | 2.0 | 4.0 | 0.00 | 0.00 | 0.00 | 75 | 1007.0 |
| 20260506003912 | 83 | 125 | 1.0 | 4.0 | 0.00 | 0.00 | 0.00 | 75 | 1007.0 |
| 20260506003411 | 83 | 134 | 2.0 | 4.0 | 0.00 | 0.00 | 0.00 | 74 | 1007.0 |
| 20260506002912 | 83 | 140 | 1.0 | 4.0 | 0.00 | 0.00 | 0.00 | 74 | 1006.9 |
| 20260506002413 | 83 | 140 | 1.0 | 4.0 | 0.00 | 0.00 | 0.00 | 74 | 1006.9 |
| 20260506001912 | 83 | 147 | 2.0 | 3.0 | 0.00 | 0.00 | 0.00 | 74 | 1006.9 |
| 20260506001411 | 83 | 133 | 1.0 | 3.0 | 0.00 | 0.00 | 0.00 | 73 | 1006.9 |
| 20260506000912 | 83 | 140 | 2.0 | 5.0 | 0.00 | 0.00 | 0.00 | 73 | 1006.8 |
| 20260506000410 | 83 | 151 | 2.0 | 5.0 | 0.00 | 0.00 | 0.00 | 73 | 1006.7 |
| 20260505235917 | 83 | 130 | 2.0 | 5.0 | 0.00 | 0.00 | 0.00 | 73 | 1006.7 |
| 20260505235913 | 83 | 152 | 2.0 | 5.0 | 0.00 | 0.00 | 0.00 | 73 | 1006.7 |
| 20260505234910 | 83 | 116 | 3.0 | 5.0 | 0.00 | 0.00 | 0.00 | 72 | 1006.7 |
| 20260505234411 | 84 | 147 | 2.0 | 6.0 | 0.00 | 0.00 | 0.00 | 72 | 1006.7 |
| 20260505233910 | 84 | 127 | 3.0 | 6.0 | 0.00 | 0.00 | 0.00 | 71 | 1006.6 |
| 20260505233411 | 84 | 141 | 3.0 | 7.0 | 0.00 | 0.00 | 0.00 | 72 | 1006.5 |
| 20260505232909 | 84 | 141 | 2.0 | 7.0 | 0.00 | 0.00 | 0.00 | 71 | 1006.5 |
| 20260505232411 | 84 | 117 | 4.0 | 6.0 | 0.00 | 0.00 | 0.00 | 71 | 1006.6 |
| 20260505231909 | 84 | 128 | 2.0 | 5.0 | 0.00 | 0.00 | 0.00 | 71 | 1006.7 |
| 20260505231410 | 84 | 140 | 2.0 | 4.0 | 0.00 | 0.00 | 0.00 | 72 | 1006.7 |
| 20260505230909 | 84 | 147 | 1.0 | 5.0 | 0.00 | 0.00 | 0.00 | 72 | 1006.6 |
| 20260505230409 | 84 | 135 | 2.0 | 5.0 | 0.00 | 0.00 | 0.00 | 71 | 1006.5 |
| 20260505225910 | 84 | 154 | 3.0 | 6.0 | 0.00 | 0.00 | 0.00 | 71 | 1006.5 |
| 20260505225409 | 84 | 145 | 3.0 | 6.0 | 0.00 | 0.00 | 0.00 | 71 | 1006.3 |
| 20260505224913 | 84 | 147 | 3.0 | 6.0 | 0.00 | 0.00 | 0.00 | 70 | 1006.3 |
| 20260505224909 | 84 | 154 | 1.0 | 6.0 | 0.00 | 0.00 | 0.00 | 70 | 1006.5 |
| 20260505223915 | 84 | 142 | 4.0 | 7.0 | 0.00 | 0.00 | 0.00 | 70 | 1006.2 |
| 20260505223910 | 84 | 141 | 3.0 | 7.0 | 0.00 | 0.00 | 0.00 | 70 | 1006.2 |
| 20260505222910 | 85 | 130 | 3.0 | 7.0 | 0.00 | 0.00 | 0.00 | 70 | 1006.3 |
| 20260505222409 | 85 | 141 | 1.0 | 6.0 | 0.00 | 0.00 | 0.00 | 70 | 1006.2 |
| 20260505221908 | 85 | 165 | 3.0 | 7.0 | 0.00 | 0.00 | 0.00 | 69 | 1006.3 |
| 20260505221408 | 85 | 148 | 4.0 | 7.0 | 0.00 | 0.00 | 0.00 | 70 | 1006.3 |
| 20260505220908 | 85 | 158 | 3.0 | 7.0 | 0.00 | 0.00 | 0.00 | 69 | 1006.3 |
| 20260505220407 | 85 | 130 | 4.0 | 7.0 | 0.00 | 0.00 | 0.00 | 69 | 1006.3 |
| 20260505215909 | 85 | 142 | 3.0 | 6.0 | 0.00 | 0.00 | 0.00 | 69 | 1006.3 |
| 20260505215413 | 85 | 138 | 3.0 | 6.0 | 0.00 | 0.00 | 0.00 | 67 | 1006.9 |
| 20260505215409 | 85 | 124 | 1.0 | 6.0 | 0.00 | 0.00 | 0.00 | 68 | 1006.6 |
| 20260505214409 | 85 | 149 | 1.0 | 11.0 | 0.00 | 0.00 | 0.00 | 67 | 1006.9 |
| 20260505213913 | 86 | 164 | 3.0 | 9.0 | 0.00 | 0.00 | 0.00 | 67 | 1006.9 |
| 20260505213907 | 85 | 117 | 4.0 | 11.0 | 0.00 | 0.00 | 0.00 | 66 | 1006.8 |
| 20260505212907 | 86 | 157 | 3.0 | 10.0 | 0.00 | 0.00 | 0.00 | 67 | 1007.1 |
| 20260505212409 | 85 | 142 | 4.0 | 10.0 | 0.00 | 0.00 | 0.00 | 68 | 1007.0 |
| 20260505211915 | 85 | 147 | 3.0 | 6.0 | 0.00 | 0.00 | 0.00 | 68 | 1007.1 |
| 20260505211908 | 85 | 140 | 2.0 | 10.0 | 0.00 | 0.00 | 0.00 | 69 | 1007.0 |
| 20260505211409 | 85 | 149 | 5.0 | 10.0 | 0.00 | 0.00 | 0.00 | 68 | 1007.1 |
| 20260505210407 | 85 | 147 | 3.0 | 6.0 | 0.00 | 0.00 | 0.00 | 69 | 1007.1 |
| 20260505205907 | 84 | 169 | 3.0 | 7.0 | 0.00 | 0.00 | 0.00 | 71 | 1007.2 |
| 20260505205407 | 84 | 159 | 3.0 | 7.0 | 0.00 | 0.00 | 0.00 | 70 | 1007.2 |
| 20260505204906 | 83 | 154 | 5.0 | 9.0 | 0.00 | 0.00 | 0.00 | 71 | 1007.3 |
| 20260505204414 | 83 | 168 | 5.0 | 10.0 | 0.00 | 0.00 | 0.00 | 72 | 1007.5 |
| 20260505204408 | 83 | 123 | 4.0 | 9.0 | 0.00 | 0.00 | 0.00 | 71 | 1007.4 |
| 20260505203407 | 83 | 147 | 5.0 | 10.0 | 0.00 | 0.00 | 0.00 | 72 | 1007.7 |
| 20260505202912 | 83 | 158 | 1.0 | 7.0 | 0.00 | 0.00 | 0.00 | 73 | 1007.9 |
| 20260505202907 | 83 | 157 | 3.0 | 9.0 | 0.00 | 0.00 | 0.00 | 72 | 1007.8 |
| 20260505201912 | 83 | 144 | 3.0 | 6.0 | 0.00 | 0.00 | 0.00 | 73 | 1008.1 |
| 20260505201906 | 83 | 149 | 4.0 | 7.0 | 0.00 | 0.00 | 0.00 | 72 | 1008.0 |
| 20260505200905 | 83 | 152 | 2.0 | 7.0 | 0.00 | 0.00 | 0.00 | 73 | 1008.1 |
| 20260505200405 | 82 | 154 | 1.0 | 7.0 | 0.00 | 0.00 | 0.00 | 74 | 1008.2 |
| 20260505195906 | 82 | 217 | 4.0 | 6.0 | 0.00 | 0.00 | 0.00 | 73 | 1008.2 |
| 20260505195410 | 82 | 140 | 4.0 | 7.0 | 0.00 | 0.00 | 0.00 | 74 | 1008.3 |
| 20260505195405 | 82 | 152 | 4.0 | 7.0 | 0.00 | 0.00 | 0.00 | 74 | 1008.3 |
| 20260505194406 | 82 | 118 | 4.0 | 7.0 | 0.00 | 0.00 | 0.00 | 74 | 1008.3 |
| 20260505193905 | 81 | 151 | 0.0 | 7.0 | 0.00 | 0.00 | 0.00 | 75 | 1008.4 |
| 20260505193409 | 81 | 131 | 3.0 | 7.0 | 0.00 | 0.00 | 0.00 | 75 | 1008.5 |
| 20260505193405 | 81 | 138 | 4.0 | 7.0 | 0.00 | 0.00 | 0.00 | 74 | 1008.5 |
| 20260505192405 | 81 | 134 | 4.0 | 9.0 | 0.00 | 0.00 | 0.00 | 74 | 1008.6 |
| 20260505191904 | 81 | 121 | 3.0 | 9.0 | 0.00 | 0.00 | 0.00 | 75 | 1008.5 |
| 20260505191404 | 81 | 166 | 3.0 | 9.0 | 0.00 | 0.00 | 0.00 | 75 | 1008.6 |
| 20260505190909 | 82 | 149 | 1.0 | 6.0 | 0.00 | 0.00 | 0.00 | 75 | 1008.6 |
| 20260505190905 | 81 | 158 | 2.0 | 7.0 | 0.00 | 0.00 | 0.00 | 74 | 1008.5 |
| 20260505185905 | 82 | 131 | 2.0 | 6.0 | 0.00 | 0.00 | 0.00 | 75 | 1008.6 |
| 20260505185405 | 81 | 144 | 2.0 | 6.0 | 0.00 | 0.00 | 0.00 | 76 | 1008.8 |
| 20260505184904 | 81 | 144 | 1.0 | 7.0 | 0.00 | 0.00 | 0.00 | 77 | 1008.9 |
| 20260505184404 | 80 | 140 | 3.0 | 7.0 | 0.00 | 0.00 | 0.00 | 78 | 1008.8 |
| 20260505183904 | 80 | 149 | 1.0 | 6.0 | 0.00 | 0.00 | 0.00 | 79 | 1009.0 |
| 20260505183403 | 79 | 137 | 1.0 | 6.0 | 0.00 | 0.00 | 0.00 | 79 | 1009.1 |
| 20260505182910 | 78 | 149 | 1.0 | 4.0 | 0.00 | 0.00 | 0.00 | 80 | 1009.2 |
| 20260505182903 | 79 | 145 | 1.0 | 4.0 | 0.00 | 0.00 | 0.00 | 80 | 1009.1 |
| 20260505182403 | 78 | 148 | 1.0 | 4.0 | 0.00 | 0.00 | 0.00 | 80 | 1009.3 |
| 20260505181403 | 78 | 147 | 2.0 | 4.0 | 0.00 | 0.00 | 0.00 | 81 | 1009.2 |
| 20260505180905 | 78 | 141 | 2.0 | 4.0 | 0.00 | 0.00 | 0.00 | 81 | 1009.2 |
| 20260505180403 | 78 | 131 | 1.0 | 4.0 | 0.00 | 0.00 | 0.00 | 82 | 1009.3 |
| 20260505175908 | 77 | 141 | 2.0 | 5.0 | 0.00 | 0.00 | 0.00 | 81 | 1009.5 |
| 20260505175904 | 77 | 144 | 0.0 | 5.0 | 0.00 | 0.00 | 0.00 | 82 | 1009.4 |
| 20260505174902 | 77 | 154 | 2.0 | 4.0 | 0.00 | 0.00 | 0.00 | 82 | 1009.5 |
| 20260505174403 | 77 | 161 | 0.0 | 5.0 | 0.00 | 0.00 | 0.00 | 82 | 1009.7 |
| 20260505173904 | 77 | 141 | 2.0 | 5.0 | 0.00 | 0.00 | 0.00 | 82 | 1009.6 |
| 20260505173403 | 77 | 135 | 0.0 | 4.0 | 0.00 | 0.00 | 0.00 | 82 | 1009.7 |
| 20260505172903 | 76 | 135 | 0.0 | 3.0 | 0.00 | 0.00 | 0.00 | 83 | 1009.7 |
| 20260505172403 | 76 | 155 | 1.0 | 2.0 | 0.00 | 0.00 | 0.00 | 83 | 1009.7 |
| 20260505171902 | 76 | 133 | 1.0 | 6.0 | 0.00 | 0.00 | 0.00 | 83 | 1009.6 |
| 20260505171402 | 76 | 168 | 2.0 | 6.0 | 0.00 | 0.00 | 0.00 | 83 | 1009.8 |
| 20260505170902 | 75 | 133 | 2.0 | 6.0 | 0.00 | 0.00 | 0.00 | 83 | 1009.8 |
| 20260505170402 | 75 | 147 | 3.0 | 6.0 | 0.00 | 0.00 | 0.00 | 83 | 1009.7 |
| 20260505165902 | 75 | 155 | 2.0 | 6.0 | 0.00 | 0.00 | 0.00 | 84 | 1009.8 |
| 20260505165407 | 75 | 155 | 0.0 | 5.0 | 0.00 | 0.00 | 0.00 | 84 | 1009.9 |
| 20260505165403 | 75 | 135 | 2.0 | 4.0 | 0.00 | 0.00 | 0.00 | 84 | 1009.8 |
| 20260505164407 | 74 | 147 | 2.0 | 5.0 | 0.00 | 0.00 | 0.00 | 84 | 1009.8 |
| 20260505164401 | 74 | 152 | 0.0 | 5.0 | 0.00 | 0.00 | 0.00 | 84 | 1009.8 |
| 20260505164018 | 74 | 149 | 3.0 | 5.0 | 0.00 | 0.00 | 0.00 | 84 | 1009.7 |
| 20260505162907 | 74 | 147 | 2.0 | 5.0 | 0.00 | 0.00 | 0.00 | 85 | 1009.8 |
| 20260505162902 | 74 | 144 | 2.0 | 5.0 | 0.00 | 0.00 | 0.00 | 85 | 1009.8 |
| 20260505161902 | 73 | 162 | 2.0 | 5.0 | 0.00 | 0.00 | 0.00 | 85 | 1009.8 |
| 20260505161403 | 73 | 151 | 2.0 | 6.0 | 0.00 | 0.00 | 0.00 | 84 | 1009.8 |
| 20260505160901 | 73 | 144 | 1.0 | 6.0 | 0.00 | 0.00 | 0.00 | 84 | 1009.9 |
| 20260505160407 | 73 | 147 | 1.0 | 4.0 | 0.00 | 0.00 | 0.00 | 84 | 1009.8 |
| 20260505160402 | 73 | 151 | 1.0 | 6.0 | 0.00 | 0.00 | 0.00 | 84 | 1009.8 |
| 20260505152900 | 72 | 123 | 2.0 | 6.0 | 0.00 | 0.00 | 0.00 | 83 | 1010.0 |
| 20260505152401 | 72 | 134 | 1.0 | 6.0 | 0.00 | 0.00 | 0.00 | 83 | 1009.9 |
| 20260505151902 | 72 | 148 | 2.0 | 4.0 | 0.00 | 0.00 | 0.00 | 83 | 1009.9 |
| 20260505151401 | 72 | 148 | 2.0 | 5.0 | 0.00 | 0.00 | 0.00 | 83 | 1009.9 |
| 20260505150859 | 72 | 124 | 1.0 | 5.0 | 0.00 | 0.00 | 0.00 | 83 | 1009.7 |
| 20260505150359 | 72 | 203 | 1.0 | 5.0 | 0.00 | 0.00 | 0.00 | 83 | 1009.6 |
| 20260505140358 | 72 | 125 | 2.0 | 6.0 | 0.00 | 0.00 | 0.00 | 83 | 1009.5 |
| 20260505124857 | 71 | 131 | 1.0 | 7.0 | 0.00 | 0.00 | 0.00 | 81 | 1008.6 |
| 20260505123857 | 71 | 128 | 4.0 | 7.0 | 0.00 | 0.00 | 0.00 | 81 | 1008.6 |
| 20260505123356 | 71 | 147 | 4.0 | 7.0 | 0.00 | 0.00 | 0.00 | 81 | 1008.5 |
| 20260505122856 | 71 | 130 | 2.0 | 6.0 | 0.00 | 0.00 | 0.00 | 81 | 1008.6 |
| 20260505122356 | 71 | 142 | 3.0 | 6.0 | 0.00 | 0.00 | 0.00 | 81 | 1008.5 |
| 20260505121858 | 71 | 157 | 2.0 | 7.0 | 0.00 | 0.00 | 0.00 | 82 | 1008.4 |
| 20260505121356 | 71 | 272 | 1.0 | 7.0 | 0.00 | 0.00 | 0.00 | 82 | 1008.3 |
| 20260505120856 | 71 | 161 | 2.0 | 6.0 | 0.00 | 0.00 | 0.00 | 82 | 1008.3 |
| 20260505120356 | 71 | 137 | 3.0 | 6.0 | 0.00 | 0.00 | 0.00 | 82 | 1008.3 |
| 20260505115901 | 71 | 161 | 2.0 | 6.0 | 0.00 | 0.00 | 0.00 | 83 | 1008.1 |
| 20260505115857 | 71 | 157 | 3.0 | 6.0 | 0.00 | 0.00 | 0.00 | 83 | 1008.2 |
| 20260505114855 | 71 | 140 | 2.0 | 7.0 | 0.00 | 0.00 | 0.00 | 83 | 1008.2 |
| 20260505114356 | 71 | 159 | 4.0 | 7.0 | 0.00 | 0.00 | 0.00 | 83 | 1008.2 |
| 20260505113856 | 71 | 152 | 2.0 | 7.0 | 0.00 | 0.00 | 0.00 | 83 | 1008.2 |
| 20260505113355 | 71 | 171 | 4.0 | 7.0 | 0.00 | 0.00 | 0.00 | 83 | 1008.0 |
| 20260505112858 | 71 | 164 | 4.0 | 7.0 | 0.00 | 0.00 | 0.00 | 83 | 1008.0 |
| 20260505112854 | 71 | 135 | 2.0 | 6.0 | 0.00 | 0.00 | 0.00 | 83 | 1008.2 |
| 20260505112516 | 71 | 203 | 2.0 | 7.0 | 0.00 | 0.00 | 0.00 | 83 | 1008.1 |
| 20260505111356 | 71 | 145 | 2.0 | 7.0 | 0.00 | 0.00 | 0.00 | 83 | 1008.0 |
| 20260505110859 | 71 | 135 | 2.0 | 11.0 | 0.00 | 0.00 | 0.00 | 83 | 1008.4 |
| 20260505110854 | 71 | 159 | 3.0 | 7.0 | 0.00 | 0.00 | 0.00 | 83 | 1008.3 |
| 20260505101854 | 71 | 157 | 3.0 | 9.0 | 0.00 | 0.00 | 0.00 | 84 | 1008.3 |
| 20260505101354 | 71 | 152 | 4.0 | 7.0 | 0.00 | 0.00 | 0.00 | 84 | 1008.4 |
| 20260505100853 | 71 | 140 | 3.0 | 6.0 | 0.00 | 0.00 | 0.00 | 84 | 1008.6 |
| 20260505100353 | 71 | 155 | 2.0 | 6.0 | 0.00 | 0.00 | 0.00 | 84 | 1008.3 |
| 20260505095853 | 71 | 159 | 2.0 | 7.0 | 0.00 | 0.00 | 0.00 | 84 | 1008.5 |
| 20260505095354 | 71 | 159 | 3.0 | 7.0 | 0.00 | 0.00 | 0.00 | 84 | 1008.3 |
| 20260505094854 | 71 | 144 | 2.0 | 5.0 | 0.00 | 0.00 | 0.00 | 84 | 1008.2 |
| 20260505094354 | 71 | 140 | 1.0 | 7.0 | 0.00 | 0.00 | 0.00 | 84 | 1008.3 |
| 20260505093854 | 71 | 182 | 2.0 | 9.0 | 0.00 | 0.00 | 0.00 | 84 | 1008.5 |
| 20260505093352 | 71 | 165 | 3.0 | 9.0 | 0.00 | 0.00 | 0.00 | 84 | 1008.5 |
| 20260505092853 | 71 | 133 | 3.0 | 9.0 | 0.00 | 0.00 | 0.00 | 84 | 1008.5 |
| 20260505092352 | 71 | 161 | 1.0 | 9.0 | 0.00 | 0.00 | 0.00 | 84 | 1008.5 |
| 20260505091853 | 71 | 131 | 4.0 | 9.0 | 0.00 | 0.00 | 0.00 | 84 | 1008.4 |
| 20260505091353 | 71 | 11 | 4.0 | 7.0 | 0.00 | 0.00 | 0.00 | 84 | 1008.3 |
| 20260505090852 | 71 | 154 | 3.0 | 7.0 | 0.00 | 0.00 | 0.00 | 84 | 1008.4 |
| 20260505090352 | 71 | 159 | 5.0 | 7.0 | 0.00 | 0.00 | 0.00 | 84 | 1008.6 |
| 20260505085852 | 71 | 134 | 2.0 | 10.0 | 0.00 | 0.00 | 0.00 | 84 | 1008.4 |
| 20260505085351 | 71 | 147 | 4.0 | 10.0 | 0.00 | 0.00 | 0.00 | 84 | 1008.5 |
| 20260505084851 | 71 | 157 | 3.0 | 6.0 | 0.00 | 0.00 | 0.00 | 84 | 1008.5 |
| 20260505084352 | 71 | 158 | 3.0 | 6.0 | 0.00 | 0.00 | 0.00 | 84 | 1008.5 |
| 20260505083851 | 71 | 152 | 2.0 | 11.0 | 0.00 | 0.00 | 0.00 | 84 | 1008.5 |
| 20260505083354 | 71 | 138 | 4.0 | 11.0 | 0.00 | 0.00 | 0.00 | 84 | 1008.5 |
| 20260505082851 | 71 | 158 | 4.0 | 9.0 | 0.00 | 0.00 | 0.00 | 84 | 1008.6 |
| 20260505082352 | 71 | 173 | 3.0 | 9.0 | 0.00 | 0.00 | 0.00 | 84 | 1008.8 |
| 20260505081851 | 71 | 164 | 2.0 | 7.0 | 0.00 | 0.00 | 0.00 | 84 | 1009.0 |
| 20260505081351 | 71 | 141 | 4.0 | 7.0 | 0.00 | 0.00 | 0.00 | 84 | 1009.0 |
| 20260505080850 | 71 | 161 | 3.0 | 11.0 | 0.00 | 0.00 | 0.00 | 84 | 1009.0 |
| 20260505080352 | 71 | 169 | 4.0 | 14.0 | 0.00 | 0.00 | 0.00 | 84 | 1009.2 |
| 20260505075856 | 71 | 152 | 2.0 | 10.0 | 0.00 | 0.00 | 0.00 | 84 | 1009.1 |
| 20260505075851 | 71 | 134 | 4.0 | 14.0 | 0.00 | 0.00 | 0.00 | 84 | 1009.2 |
| 20260505075504 | 71 | 140 | 5.0 | 10.0 | 0.00 | 0.00 | 0.00 | 84 | 1009.3 |
| 20260505074350 | 71 | 285 | 2.0 | 7.0 | 0.00 | 0.00 | 0.00 | 84 | 1009.4 |
| 20260505073850 | 71 | 159 | 3.0 | 7.0 | 0.00 | 0.00 | 0.00 | 84 | 1009.3 |
| 20260505073350 | 71 | 172 | 3.0 | 7.0 | 0.00 | 0.00 | 0.00 | 84 | 1009.4 |
| 20260505072856 | 71 | 149 | 5.0 | 9.0 | 0.00 | 0.00 | 0.00 | 84 | 1009.4 |
| 20260505072851 | 71 | 121 | 1.0 | 7.0 | 0.00 | 0.00 | 0.00 | 84 | 1009.4 |
| 20260505072350 | 71 | 157 | 2.0 | 7.0 | 0.00 | 0.00 | 0.00 | 84 | 1009.5 |
| 20260505071355 | 71 | 144 | 3.0 | 7.0 | 0.00 | 0.00 | 0.00 | 84 | 1009.7 |
| 20260505071351 | 71 | 172 | 5.0 | 9.0 | 0.00 | 0.00 | 0.00 | 84 | 1009.6 |
| 20260505070350 | 71 | 158 | 4.0 | 10.0 | 0.00 | 0.00 | 0.00 | 84 | 1009.8 |
| 20260505065850 | 71 | 137 | 4.0 | 10.0 | 0.00 | 0.00 | 0.00 | 84 | 1009.7 |
| 20260505065350 | 71 | 157 | 3.0 | 10.0 | 0.00 | 0.00 | 0.00 | 84 | 1009.8 |
| 20260505064850 | 71 | 154 | 4.0 | 10.0 | 0.00 | 0.00 | 0.00 | 84 | 1009.8 |
| 20260505064350 | 71 | 159 | 4.0 | 9.0 | 0.00 | 0.00 | 0.00 | 84 | 1009.9 |
| 20260505063850 | 71 | 141 | 2.0 | 11.0 | 0.00 | 0.00 | 0.00 | 84 | 1009.9 |
| 20260505063349 | 71 | 183 | 4.0 | 11.0 | 0.00 | 0.00 | 0.00 | 84 | 1009.9 |
| 20260505062850 | 71 | 141 | 4.0 | 12.0 | 0.00 | 0.00 | 0.00 | 84 | 1010.0 |
| 20260505062349 | 71 | 154 | 4.0 | 12.0 | 0.00 | 0.00 | 0.00 | 84 | 1010.1 |
| 20260505061851 | 71 | 162 | 5.0 | 11.0 | 0.00 | 0.00 | 0.00 | 84 | 1010.2 |
| 20260505061348 | 71 | 138 | 6.0 | 11.0 | 0.00 | 0.00 | 0.00 | 84 | 1010.3 |
| 20260505060849 | 71 | 128 | 3.0 | 7.0 | 0.00 | 0.00 | 0.00 | 84 | 1010.2 |
| 20260505060348 | 71 | 144 | 2.0 | 7.0 | 0.00 | 0.00 | 0.00 | 84 | 1010.2 |
| 20260505055848 | 72 | 317 | 2.0 | 7.0 | 0.00 | 0.00 | 0.00 | 84 | 1010.2 |
| 20260505055348 | 72 | 135 | 4.0 | 11.0 | 0.00 | 0.00 | 0.00 | 84 | 1010.2 |